Simultaneous Nadir Overpasses (SNOs) Predictions

Prediction of SNOs between AURA and NPP Satellite Orbit:

Table of predicted SNOs for the next 14.0 days since TLE Epoch: 12/15/2018
Index Date (AURA) Time (AURA) Lat,Lon (AURA) SZA (AURA ) Date (NPP) Time (NPP) Lat,Lon (NPP) SZA (NPP ) Distance(km) Time Diff (sec)
1 12/16/2018 10:35:29 -79.40, 97.28 64.76 12/16/2018 10:34:22 -79.40, 97.26 64.70 0.50 67
2 12/16/2018 11:24:48 79.67, -93.19 114.88 12/16/2018 11:24:58 79.67, -93.17 114.87 0.53 10
3 12/19/2018 02:51:56 -79.52,-145.99 64.78 12/19/2018 02:51:13 -79.53,-145.94 64.76 1.16 43
4 12/19/2018 03:41:15 79.78, 23.56 114.85 12/19/2018 03:41:49 79.79, 23.67 114.81 2.21 34
5 12/21/2018 19:08:25 -79.53, -30.07 64.70 12/21/2018 19:08:07 -79.52, -30.22 64.66 3.05 18
6 12/21/2018 19:57:44 79.79, 139.47 114.94 12/21/2018 19:58:43 79.78, 139.37 114.91 2.02 59
7 12/24/2018 10:35:30 79.45, -82.39 115.45 12/24/2018 10:34:18 79.45, -82.31 115.49 1.69 72
8 12/24/2018 11:24:52 -79.64, 86.61 64.82 12/24/2018 11:24:58 -79.64, 86.59 64.83 0.45 6
9 12/27/2018 02:51:59 79.48, 33.72 115.38 12/27/2018 02:51:12 79.48, 33.65 115.43 1.54 47
10 12/27/2018 03:41:18 -79.78,-156.45 65.05 12/27/2018 03:41:48 -79.79,-156.31 65.10 2.78 30
11 12/29/2018 19:08:25 79.62, 150.59 115.11 12/29/2018 19:08:02 79.63, 150.69 115.11 2.16 23




NCC Satellite Simultaneous Nadir Overpasses (SNOs) Prediction Service
